Location: *
(49.9853°N, 3.5569°E)
Time: 07:36:15
(UTC+00:00)

Cosmos 614 Rocket - Pass Details

Date: 22 September 2019
Orbit: 733 x 764 km, 74.1° (Epoch: 15 October)

Event Time Altitude Azimuth Distance (km) Brightness Sun altitude
Rises 18:39:06 0° 336° (NNW) 3,239 7.8 -9.5°
Reaches altitude 10° 18:41:29 10° 336° (NNW) 2,307 7.0 -9.9°
Maximum altitude 18:46:44 88° 67° (ENE) 767 4.0 -10.7°
Drops below altitude 10° 18:51:55 10° 157° (SSE) 2,274 6.1 -11.5°
Enters shadow 18:54:09 - 158° (SSE) 3,147 6.8 -11.9°
